Home   Weather   19°27'N, 99°14'W   Past weeks
Flag for Mexico

Past Weather in 19°27'N, 99°14'W, Mexico — Yesterday and Last 2 Weeks

Now
64 °F

Partly cloudy.


Feels Like: 64 °F
Forecast: 66 / 53 °F
Wind: 7 mph from Northeast

Location: Mexico City / Licenci

Current Time: Nov 14, 2019 at 8:58:34 pm

Latest Report: Nov 14, 2019 at 7:42 pm


Visibility: 10 mi

Pressure: 30.33 "Hg

Humidity: 56%

Dew Point: 48 °F

Location of 19°27'N, 99°14'WLocation

Past Weather in 19°27'N, 99°14'W — Graph

°F

19°27'N, 99°14'W Temperature Yesterday

Maximum temperature yesterday: 70 °F (at 1:21 pm)
Minimum temperature yesterday: 50 °F (at 3:42 am)
Average temperature yesterday: 61 °F

High & Low Weather Summary for the Past Weeks

 TemperatureHumidityPressure
High77 °F (Nov 7, 3:44 pm)100% (Nov 10, 7:46 am)30.47 "Hg (Nov 10, 7:46 am)
Low48 °F (Nov 10, 6:40 am)22% (Nov 7, 3:44 pm)29.71 "Hg (Nov 11, 2:52 pm)
Average62 °F62%30.22 "Hg
* Reported Oct 31 2:45 am — Nov 14 5:48 pm, 19°27'N, 99°14'W. Weather by CustomWeather, © 2019

Note: Actual official high and low records may vary slightly from our data, if they occured in-between our weather recording intervals... More about our weather records

Advertising

19°27'N, 99°14'W Weather History for the Previous 24 Hours

Scroll right to see more
 ConditionsComfort  
Time TempWeatherWind HumidityBarometerVisibility
5:48 pm
Thu, Nov 14
66 °FBroken clouds.13 mph52%29.82 "Hg12 mi
4:48 pm70 °FBroken clouds.14 mph46%30.25 "Hg12 mi
3:45 pm72 °FBroken clouds.8 mph33%30.24 "Hg11 mi
2:55 pm73 °FBroken clouds.9 mph33%29.75 "Hg11 mi
1:45 pm72 °FBroken clouds.5 mph31%30.27 "Hg12 mi
12:48 pm73 °FScattered clouds.8 mph31%30.30 "Hg12 mi
11:53 am72 °FScattered clouds.6 mph36%29.87 "Hg10 mi
11:22 am70 °FPartly sunny.8 mph38%30.35 "Hg10 mi
10:41 am66 °FPartly sunny.3 mph43%30.37 "Hg10 mi
9:45 am64 °FBroken clouds.5 mph46%30.36 "Hg10 mi
8:46 am61 °FPartly sunny.5 mph59%29.90 "Hg12 mi
7:45 am57 °FPartly sunny.5 mph67%30.33 "Hg12 mi
6:45 am55 °FPartly sunny.No wind72%30.31 "Hg15 mi
5:41 am55 °FPassing clouds.No wind67%29.87 "Hg15 mi
4:41 am57 °FPassing clouds.5 mph63%30.30 "Hg15 mi
3:40 am57 °FPassing clouds.No wind63%30.30 "Hg15 mi
2:45 am57 °FPassing clouds.No wind63%29.82 "Hg15 mi
1:45 am59 °FPassing clouds.7 mph59%30.32 "Hg15 mi
12:45 am61 °FPassing clouds.9 mph52%30.30 "Hg15 mi
11:45 pm
Wed, Nov 13
61 °FPassing clouds.9 mph52%29.82 "Hg15 mi
10:45 pm61 °FPassing clouds.14 mph48%30.31 "Hg12 mi
9:45 pm61 °FPassing clouds.14 mph52%30.32 "Hg12 mi
9:26 pm61 °FPassing clouds.14 mph52%30.32 "Hg12 mi
8:47 pm63 °FPassing clouds.16 mph49%29.87 "Hg10 mi
Weather by CustomWeather, © 2019

See weather overview